FW0734 Weather Reports


time (UTC)temp
C
wind
direction
speed
KPH
gust
KPH
rain 1hr
cm
rain 24hr
cm
rain mn
cm
humidity
%
barometer
mb
20260504223503 13 352 0.0 3.2 0.00 0.18 0.05 89 1017.7
20260504223003 13 352 0.0 4.8 0.00 0.18 0.05 90 1017.7
20260504222503 13 353 1.6 4.8 0.00 0.18 0.05 90 1017.6
20260504222003 12 354 0.0 4.8 0.00 0.18 0.05 91 1017.6
20260504221524 12 355 1.6 4.8 0.00 0.18 0.05 92 1017.7
20260504221003 12 355 1.6 4.8 0.00 0.18 0.05 93 1017.7
20260504220503 12 357 0.0 3.2 0.00 0.18 0.05 93 1017.6
20260504220003 12 357 0.0 3.2 0.00 0.18 0.05 94 1017.7
20260504215524 12 0 0.0 0.0 0.00 0.18 0.05 94 1017.5
20260504215003 12 0 0.0 0.0 0.00 0.18 0.05 94 1017.5
20260504214503 12 356 0.0 1.6 0.00 0.18 0.05 94 1017.5
20260504214003 12 356 0.0 1.6 0.00 0.18 0.05 94 1017.3
20260504213503 12 0 0.0 0.0 0.00 0.18 0.05 94 1017.2
20260504213003 12 0 0.0 0.0 0.00 0.18 0.05 94 1017.1
20260504212503 12 0 0.0 0.0 0.00 0.18 0.05 94 1017.0
20260504212003 12 0 0.0 0.0 0.00 0.18 0.05 94 1017.0
20260504211503 11 0 0.0 0.0 0.00 0.18 0.05 94 1016.9
20260504211003 11 0 0.0 0.0 0.00 0.18 0.05 94 1016.8
20260504210503 11 0 0.0 0.0 0.00 0.18 0.05 94 1016.7
20260504210024 11 0 0.0 0.0 0.00 0.18 0.05 94 1016.7
20260504205503 11 0 0.0 0.0 0.00 0.18 0.05 94 1016.8
20260504205003 11 0 0.0 0.0 0.00 0.18 0.05 94 1016.7
20260504204503 11 0 0.0 0.0 0.00 0.18 0.05 94 1016.6
20260504204003 12 0 0.0 0.0 0.00 0.18 0.05 94 1016.4
20260504203503 12 0 0.0 0.0 0.00 0.18 0.05 94 1016.4
20260504203003 12 0 0.0 0.0 0.00 0.18 0.05 93 1016.3
20260504202503 12 0 0.0 0.0 0.00 0.18 0.05 94 1016.2
20260504202003 12 0 0.0 0.0 0.00 0.18 0.05 94 1016.1
20260504201503 12 0 0.0 0.0 0.00 0.18 0.05 93 1015.9
20260504201003 12 356 0.0 3.2 0.00 0.18 0.05 94 1015.9
20260504200503 12 356 0.0 3.2 0.00 0.18 0.05 94 1015.9
20260504200003 12 356 0.0 3.2 0.00 0.18 0.05 93 1015.8
20260504195503 12 356 0.0 3.2 0.00 0.18 0.05 94 1015.6
20260504195024 12 356 0.0 3.2 0.00 0.18 0.05 93 1015.7
20260504194503 12 0 0.0 0.0 0.00 0.18 0.05 93 1015.5
20260504194003 12 356 0.0 1.6 0.00 0.18 0.05 94 1015.3
20260504193524 13 356 0.0 1.6 0.00 0.18 0.05 93 1015.3
20260504193003 13 356 0.0 1.6 0.00 0.18 0.05 93 1015.3
20260504192503 13 356 0.0 1.6 0.00 0.18 0.05 94 1015.2
20260504192024 13 357 0.0 1.6 0.00 0.18 0.05 94 1015.2
20260504191524 13 357 0.0 1.6 0.00 0.18 0.05 94 1015.2
20260504191003 13 356 0.0 3.2 0.03 0.18 0.05 94 1015.1
20260504190503 13 356 0.0 3.2 0.03 0.18 0.05 93 1015.2
20260504190003 13 0 0.0 0.0 0.03 0.18 0.05 93 1015.2
20260504185503 14 0 0.0 0.0 0.03 0.18 0.05 93 1015.2
20260504185003 14 0 0.0 0.0 0.03 0.18 0.05 93 1015.1
20260504184503 14 0 0.0 0.0 0.03 0.18 0.05 94 1015.1
20260504184003 14 356 0.0 1.6 0.03 0.18 0.05 94 1015.1
20260504183524 14 356 0.0 1.6 0.03 0.18 0.05 94 1015.1
20260504183003 14 0 0.0 0.0 0.03 0.18 0.05 94 1015.0
20260504182524 14 356 0.0 4.8 0.03 0.18 0.05 94 1014.9
20260504182024 14 356 0.0 4.8 0.03 0.18 0.05 94 1014.7
20260504181524 14 0 0.0 0.0 0.03 0.18 0.05 93 1014.6
20260504181003 14 0 0.0 0.0 0.00 0.15 0.03 93 1014.7
20260504180503 14 0 0.0 0.0 0.00 0.15 0.03 93 1014.6
20260504180003 14 357 0.0 3.2 0.00 0.15 0.03 93 1014.6
20260504175524 14 357 0.0 3.2 0.00 0.15 0.03 93 1014.7
20260504175003 14 356 0.0 6.4 0.00 0.15 0.03 93 1014.7
20260504174524 14 356 0.0 6.4 0.00 0.15 0.03 93 1014.7
20260504174003 14 357 0.0 4.8 0.00 0.15 0.03 93 1014.7
20260504173524 14 357 0.0 4.8 0.00 0.15 0.03 93 1014.6
20260504173003 14 356 0.0 1.6 0.00 0.15 0.03 93 1014.6
20260504172503 14 356 0.0 3.2 0.00 0.15 0.03 93 1014.6
20260504172003 14 356 0.0 3.2 0.00 0.15 0.03 93 1014.7
20260504171524 15 0 0.0 0.0 0.00 0.15 0.03 92 1014.8
20260504171002 15 0 0.0 0.0 0.00 0.15 0.03 92 1014.8
20260504170523 15 0 0.0 0.0 0.00 0.15 0.03 93 1014.9
20260504151023 16 0 0.0 0.0 0.03 0.15 0.03 91 1014.6
20260504150502 16 357 0.0 4.8 0.03 0.15 0.03 91 1014.8
20260504141002 17 358 0.0 4.8 0.00 0.15 0.00 88 1014.8
20260504140502 17 358 0.0 3.2 0.00 0.15 0.00 88 1015.0
20260504130502 18 0 0.0 0.0 0.00 0.15 0.15 85 1014.6
20260504110502 18 18 0.0 4.8 0.00 0.15 0.15 84 1014.3
20260504100502 18 29 1.6 9.7 0.00 0.15 0.15 83 1013.9
20260504081523 18 31 3.2 9.7 0.00 0.15 0.15 86 1013.9
20260504081002 18 31 1.6 9.7 0.00 0.15 0.15 86 1013.8
20260504080523 18 31 1.6 6.4 0.00 0.15 0.15 86 1013.6
20260504050502 18 31 1.6 6.4 0.00 0.15 0.15 91 1013.3
20260504050023 17 31 1.6 6.4 0.00 0.15 0.15 91 1013.3
20260504045502 17 31 0.0 4.8 0.00 0.15 0.15 91 1013.4
20260504045002 17 31 1.6 9.7 0.00 0.15 0.15 91 1013.4
20260504044502 17 31 1.6 9.7 0.00 0.15 0.15 92 1013.3
20260504044002 17 31 0.0 8.0 0.00 0.15 0.15 92 1013.4
20260504043502 17 31 1.6 6.4 0.00 0.15 0.15 92 1013.5
20260504043002 17 31 3.2 8.0 0.00 0.15 0.15 92 1013.4
20260504042502 17 31 1.6 8.0 0.00 0.15 0.15 92 1013.5
20260504042023 17 31 0.0 6.4 0.00 0.15 0.15 92 1013.7
20260504041502 17 31 0.0 4.8 0.00 0.15 0.15 92 1013.7
20260504041002 17 0 0.0 0.0 0.00 0.15 0.15 92 1013.8
20260504040502 17 0 0.0 0.0 0.00 0.15 0.15 92 1013.7
20260504040002 17 0 0.0 0.0 0.00 0.15 0.15 92 1013.8
20260504035502 17 0 0.0 0.0 0.00 0.15 0.15 92 1013.9
20260504035002 17 0 0.0 0.0 0.00 0.15 0.15 92 1013.9
20260504034502 17 0 0.0 0.0 0.00 0.15 0.15 92 1013.9
20260504034002 17 0 0.0 0.0 0.00 0.15 0.15 92 1013.9
20260504033523 17 0 0.0 0.0 0.03 0.15 0.15 92 1014.0
20260504033002 17 0 0.0 0.0 0.03 0.15 0.15 92 1014.2
20260504032502 17 31 0.0 1.6 0.05 0.15 0.15 92 1014.1
20260504032002 17 31 0.0 3.2 0.05 0.15 0.15 92 1014.3
20260504031502 17 31 0.0 3.2 0.05 0.15 0.15 92 1014.4
20260504031023 17 31 0.0 3.2 0.05 0.15 0.15 92 1014.5
20260504030502 17 31 0.0 3.2 0.05 0.15 0.15 92 1014.6
20260504030002 17 31 0.0 3.2 0.05 0.15 0.15 91 1014.5
20260504025502 17 0 0.0 0.0 0.08 0.15 0.15 91 1014.7
20260504025002 17 0 0.0 0.0 0.08 0.15 0.15 91 1014.9
20260504024502 17 0 0.0 0.0 0.10 0.15 0.15 91 1015.1
20260504024002 17 0 0.0 0.0 0.10 0.15 0.15 91 1015.1
20260504023502 17 0 0.0 0.0 0.08 0.13 0.13 91 1015.3
20260504023023 17 0 0.0 0.0 0.10 0.13 0.13 91 1015.4
20260504022502 17 0 0.0 0.0 0.10 0.10 0.10 90 1015.5
20260504022002 17 0 0.0 0.0 0.10 0.10 0.10 90 1015.5
20260504021502 18 31 0.0 1.6 0.10 0.10 0.10 89 1015.6
20260504021002 18 31 0.0 3.2 0.08 0.08 0.08 89 1015.7
20260504020502 18 31 0.0 3.2 0.08 0.08 0.08 88 1015.8
20260504020023 18 31 0.0 3.2 0.08 0.08 0.08 88 1015.9
20260504015502 18 31 0.0 1.6 0.05 0.05 0.05 88 1016.0
20260504015002 18 31 0.0 1.6 0.05 0.05 0.05 87 1016.1
20260504014502 18 31 0.0 3.2 0.05 0.05 0.05 87 1016.1
20260504014002 19 31 0.0 3.2 0.05 0.05 0.05 86 1016.2
20260504013502 19 0 0.0 0.0 0.05 0.05 0.05 86 1016.1
20260504013002 19 0 0.0 0.0 0.03 0.03 0.03 86 1016.2
20260504012502 19 31 0.0 3.2 0.00 0.00 0.00 85 1016.3
20260504012002 19 31 0.0 3.2 0.00 0.00 0.00 84 1016.3
20260504011502 19 0 0.0 0.0 0.00 0.00 0.00 83 1016.4
20260504011002 19 0 0.0 0.0 0.00 0.00 0.00 83 1016.5
20260504010502 20 0 0.0 0.0 0.00 0.00 0.00 83 1016.5
20260504010002 20 0 0.0 0.0 0.00 0.00 0.00 82 1016.5
20260504005523 20 0 0.0 0.0 0.00 0.00 0.00 82 1016.5
20260504005002 20 0 0.0 0.0 0.00 0.00 0.00 82 1016.5
20260504004502 20 0 0.0 0.0 0.00 0.00 0.00 81 1016.5
20260504004002 20 31 0.0 1.6 0.00 0.00 0.00 81 1016.3
20260504003502 20 31 0.0 1.6 0.00 0.00 0.00 82 1016.3
20260504003002 20 31 0.0 4.8 0.00 0.00 0.00 82 1016.3
20260504002502 19 31 0.0 4.8 0.00 0.00 0.00 83 1016.2
20260504002002 19 31 0.0 4.8 0.00 0.00 0.00 84 1016.2
20260504001502 19 31 1.6 4.8 0.00 0.00 0.00 85 1016.1
20260504001002 19 31 0.0 4.8 0.00 0.00 0.00 86 1016.1
20260504000502 18 31 0.0 3.2 0.00 0.00 0.00 86 1016.2
20260504000023 18 31 0.0 3.2 0.00 0.00 0.00 86 1016.2
20260503235502 18 31 0.0 3.2 0.00 0.00 0.00 86 1016.2
20260503235002 18 0 0.0 0.0 0.00 0.00 0.00 87 1016.2
20260503234523 18 0 0.0 0.0 0.00 0.00 0.00 86 1016.3
20260503234002 18 0 0.0 0.0 0.00 0.00 0.00 86 1016.4
20260503233502 18 0 0.0 0.0 0.00 0.00 0.00 86 1016.2
20260503233002 18 0 0.0 0.0 0.00 0.00 0.00 85 1016.2
20260503232502 18 0 0.0 0.0 0.00 0.00 0.00 86 1016.2
20260503232002 18 31 0.0 3.2 0.00 0.00 0.00 86 1016.3
20260503231502 18 31 0.0 3.2 0.00 0.00 0.00 86 1016.5
20260503231002 18 31 0.0 1.6 0.00 0.00 0.00 85 1016.6
20260503230502 18 31 0.0 1.6 0.00 0.00 0.00 86 1016.5
20260503230002 18 31 0.0 1.6 0.00 0.00 0.00 86 1016.4
20260503225502 18 31 0.0 3.2 0.00 0.00 0.00 86 1016.3
20260503225002 17 31 0.0 3.2 0.00 0.00 0.00 86 1016.3
20260503224523 17 31 0.0 3.2 0.00 0.00 0.00 87 1016.2
20260503224002 17 31 0.0 4.8 0.00 0.00 0.00 87 1016.2